Location: Hawks Ness
(60.2333°N, 1.1667°W)
Time: 05:33:21
(UTC+00:00)

Cosmos 1626 Rocket - Pass Details

Date: 22 October 2019
Orbit: 604 x 630 km, 82.5° (Epoch: 21 November)

Event Time Altitude Azimuth Distance (km) Brightness Sun altitude
Rises 05:18:23 0° 177° (S) 2,853 7.0 -13.3°
Reaches altitude 10° 05:20:37 10° 173° (S) 1,956 6.2 -13.0°
Maximum altitude 05:24:50 54° 97° (E) 746 4.4 -12.5°
Drops below altitude 10° 05:29:06 10° 20° (NNE) 1,980 6.4 -12.0°
Sets 05:31:22 0° 16° (NNE) 2,893 7.2 -11.7°
